Vorticity
7 7 6 5 6 8 9 11 -7 2 -2 9 8 7 5 6 8 9 9 9 8 9 6 5 4 4 5 7 8 12 23 22 25 16 6 14 13 10
6 9 7 5 5 7 2 7 5 0 -3 6 6 9 5 7 9 8 9 9 8 7 5 3 4 5 8 8 12 21 24 19 19 15 3 12 13 14
9 7 7 13 8 11 1 9 1 3 2 1 7 6 5 9 9 10 9 9 7 6 3 5 5 8 7 13 19 25 20 19 14 10 11 10 13 11
12 6 6 10 12 -1 7 13 -4 1 6 2 7 6 7 9 9 11 10 8 7 3 4 5 7 7 12 18 23 24 19 18 11 13 11 10 11 7
20 10 12 2 0 14 1 11 12 1 4 6 4 7 7 11 11 8 10 8 5 2 6 6 9 12 21 23 21 19 3 7 9 8 9 10 13 7
0 9 11 1 4 3 5 3 2 8 5 3 8 6 9 9 10 9 8 5 4 3 8 11 11 15 22 18 16 14 9 11 11 8 8 13 13 9
13 -3 1 2 3 2 -8 15 6 3 7 3 7 8 10 9 9 9 6 5 3 5 8 11 15 20 20 16 15 8 12 8 10 10 10 14 10 11
18 -13 11 2 5 -3 0 14 11 5 5 7 8 10 8 11 8 6 6 4 2 7 11 16 20 16 15 15 8 16 8 8 12 10 14 12 13 9
7 16 -8 5 8 17 15 7 6 6 6 7 9 9 9 9 7 6 5 4 9 10 14 17 20 12 11 10 12 13 8 8 12 12 14 11 11 8
24 -14 17 15 3 20 14 2 9 11 6 9 10 9 10 7 5 5 5 5 14 13 16 21 19 11 12 9 17 12 6 8 9 13 11 9 9 7
19 30 -7 3 10 19 20 10 8 7 9 11 9 9 7 5 5 5 6 9 8 11 16 17 16 11 14 12 14 14 6 2 9 12 12 7 7 7
23 -3 24 -9 21 4 16 1 10 8 10 10 9 8 4 6 7 7 9 10 11 12 13 21 15 13 8 10 7 12 11 5 5 10 11 6 6 6
6 11 30 1 13 19 7 13 7 7 9 10 8 4 5 6 8 9 10 10 11 14 14 18 11 12 14 9 11 10 11 9 5 11 9 9 6 5
3 3 12 22 16 10 13 8 3 8 11 11 5 4 6 8 9 10 11 12 12 13 15 16 6 11 13 12 11 10 12 6 5 5 11 9 7 6
21 11 23 13 7 8 7 -2 8 10 11 7 4 6 7 9 7 12 12 13 14 13 14 12 8 15 12 10 11 11 11 12 10 12 11 9 9 9
-4 19 14 11 10 7 5 0 16 11 10 4 5 7 8 9 10 9 9 12 14 16 13 9 11 15 11 10 11 11 11 12 10 10 9 9 9 10
22 24 16 7 10 4 1 15 12 13 4 4 7 9 8 10 10 9 11 11 13 17 13 9 13 11 11 12 12 11 12 10 10 8 8 8 10 10
13 13 7 5 3 5 18 14 16 4 4 8 9 9 10 11 10 10 11 12 14 15 11 10 14 11 11 11 12 11 10 11 9 9 9 9 9 7
17 4 9 4 10 15 18 16 2 3 7 9 9 10 10 9 10 9 11 12 16 13 10 11 12 10 11 12 12 12 14 12 12 10 8 7 7 8
9 15 0 10 12 22 16 2 4 6 8 9 10 9 9 8 9 11 10 12 16 13 10 11 12 10 10 12 12 11 13 14 13 13 11 9 6 5
3 2 7 9 25 19 5 3 5 9 9 9 8 8 9 9 9 11 10 12 15 14 11 10 12 10 11 12 12 13 14 13 13 14 10 7 9 12
1 2 8 26 16 11 -1 6 9 10 9 9 7 8 9 9 11 11 10 12 15 13 11 11 12 10 11 12 13 11 14 14 13 13 13 11 11 12
4 11 28 24 4 5 5 9 10 9 9 8 6 8 8 10 10 10 10 12 14 12 12 12 11 11 12 13 13 11 14 14 15 15 14 11 10 9
Height
3165 3165 3165 3165 3164 3164 3163 3162 3160 3157 3154 3151 3146 3142 3137 3132 3127 3122 3116 3110 3103 3099 3092 3085 3077 3068 3059 3049 3037 3026 3015 3006 2998 2990 2983 2975 2966 2956
3160 3160 3160 3159 3159 3158 3157 3156 3154 3152 3149 3145 3140 3135 3130 3126 3120 3114 3109 3104 3097 3092 3084 3077 3068 3059 3050 3039 3027 3016 3006 2998 2992 2987 2980 2971 2962 2952
3154 3154 3153 3153 3152 3152 3151 3149 3148 3145 3143 3140 3134 3129 3124 3120 3115 3109 3104 3099 3092 3087 3078 3071 3061 3052 3042 3030 3019 3009 3001 2994 2988 2983 2977 2970 2959 2951
3147 3147 3147 3147 3147 3146 3144 3142 3141 3138 3136 3133 3129 3124 3119 3114 3109 3104 3099 3094 3086 3082 3072 3064 3053 3044 3032 3022 3011 3004 2997 2992 2987 2980 2973 2967 2958 2950
3140 3140 3140 3141 3140 3138 3137 3135 3133 3131 3128 3125 3121 3116 3111 3107 3103 3097 3092 3087 3079 3074 3063 3055 3045 3035 3024 3014 3008 3001 2995 2990 2985 2979 2973 2966 2958 2950
3132 3132 3132 3133 3131 3130 3129 3128 3125 3123 3121 3117 3112 3108 3103 3099 3094 3088 3086 3080 3072 3065 3055 3047 3037 3025 3017 3010 3004 3000 2996 2991 2985 2978 2971 2965 2958 2952
3124 3124 3124 3123 3123 3121 3120 3119 3117 3115 3112 3108 3105 3100 3094 3090 3086 3081 3076 3070 3063 3056 3049 3039 3029 3019 3014 3010 3005 3000 2994 2990 2985 2978 2970 2965 2959 2953
3116 3116 3116 3115 3114 3113 3111 3110 3109 3106 3104 3101 3096 3092 3086 3082 3078 3072 3068 3063 3056 3049 3041 3031 3021 3012 3008 3005 3002 2999 2993 2990 2985 2979 2972 2966 2961 2955
3107 3107 3106 3105 3105 3103 3102 3100 3100 3098 3096 3092 3088 3084 3080 3075 3070 3066 3062 3056 3049 3042 3035 3026 3017 3010 3007 3004 3001 2998 2993 2988 2984 2979 2973 2967 2963 2956
3097 3097 3096 3095 3095 3094 3092 3092 3091 3090 3087 3084 3080 3076 3072 3068 3065 3060 3054 3049 3043 3036 3028 3022 3014 3010 3004 3003 2999 2996 2992 2988 2984 2979 2974 2969 2965 2960
3089 3089 3086 3085 3085 3084 3083 3083 3083 3081 3079 3076 3072 3068 3065 3062 3058 3053 3048 3043 3037 3029 3022 3017 3010 3009 3003 3000 2998 2994 2991 2988 2984 2980 2975 2971 2967 2963
3079 3078 3078 3077 3076 3076 3076 3076 3075 3074 3071 3067 3064 3062 3059 3055 3051 3046 3041 3036 3029 3024 3017 3014 3009 3004 3003 2998 2994 2992 2989 2986 2984 2980 2976 2972 2968 2964
3068 3068 3069 3067 3067 3066 3068 3067 3067 3065 3063 3061 3059 3056 3053 3049 3045 3039 3035 3029 3023 3017 3011 3008 3007 3002 2999 2995 2994 2990 2987 2984 2982 2979 2976 2972 2968 2965
3059 3059 3058 3057 3058 3058 3059 3059 3058 3057 3055 3054 3053 3050 3048 3044 3039 3034 3029 3024 3017 3011 3007 3004 3001 2998 2995 2992 2990 2988 2984 2981 2979 2977 2975 2971 2968 2965
3048 3047 3047 3047 3047 3049 3051 3051 3051 3049 3048 3047 3046 3043 3040 3036 3032 3028 3024 3018 3013 3008 3003 3001 2998 2996 2992 2988 2986 2984 2981 2978 2976 2974 2972 2970 2967 2965
3036 3037 3038 3038 3039 3040 3042 3043 3041 3041 3041 3040 3039 3036 3032 3029 3025 3021 3017 3012 3008 3004 2999 2997 2995 2992 2989 2984 2982 2981 2978 2975 2973 2971 2969 2967 2965 2962
3024 3026 3027 3028 3030 3032 3034 3033 3033 3034 3034 3033 3031 3028 3026 3023 3019 3015 3011 3007 3003 2999 2997 2993 2990 2987 2984 2982 2979 2977 2975 2972 2970 2969 2968 2966 2963 2961
3013 3015 3017 3019 3023 3025 3024 3024 3027 3027 3027 3026 3024 3022 3019 3016 3013 3009 3005 3001 2998 2995 2992 2989 2986 2983 2980 2978 2976 2974 2971 2969 2967 2966 2965 2964 2962 2960
3004 3006 3009 3014 3016 3015 3016 3018 3020 3021 3020 3018 3016 3014 3012 3009 3007 3004 3000 2997 2994 2991 2988 2985 2981 2978 2977 2975 2972 2969 2967 2965 2964 2963 2962 2961 2960 2958
2998 3001 3005 3007 3007 3008 3010 3012 3014 3014 3013 3012 3010 3007 3005 3003 3000 2998 2994 2993 2990 2988 2985 2981 2977 2974 2971 2970 2968 2965 2963 2961 2960 2959 2958 2958 2957 2956
2994 2997 2998 2998 2999 3001 3004 3006 3007 3006 3007 3005 3004 3001 2999 2996 2994 2991 2990 2987 2984 2983 2980 2976 2973 2971 2968 2966 2963 2961 2959 2957 2956 2956 2955 2955 2954 2953
2988 2990 2990 2991 2993 2995 2998 3000 3000 3000 2999 2999 2996 2994 2992 2990 2988 2986 2983 2982 2980 2978 2975 2971 2968 2966 2964 2962 2959 2957 2955 2953 2952 2952 2951 2951 2951 2950
2980 2982 2983 2985 2987 2991 2993 2994 2994 2994 2993 2992 2989 2988 2985 2984 2982 2980 2978 2975 2974 2972 2970 2967 2964 2961 2959 2957 2955 2953 2951 2950 2949 2949 2948 2948 2947 2947